THORAD AGENA D DEB, 4205

Orbit data source: Space-Track

THORAD AGENA D DEB, 4205 is space debris in LEO originally from a launch on Tue, 30 Sep 1969 UTC launched from the Air Force Western Test Range (AFWTR). Debris objects in space refer to the collection of defunct objects orbiting the Earth. Examples of debris include non-operational satellites, rocket bodies, and fragments generated from explosions, collisions, or faulty payload assembly.

Loading next visibility...
Identifier
4205, 1969-082BU
Orbit
LEO
Country
Flag of USUS
Related business
Manufacturer
Unknown
Mission
Spacecraft
Bus & Motor
Unknown
Mass
Unknown
Launch date (UTC)
1969-09-30 (57 years ago)
Launch vehicle
Unknown
Launch site
Air Force Western Test Range (AFWTR)
Object type
Payload
Rocket body
Debris
Shape & HBR
Unknown shape, 0.2 m
Radar Cross Section
Small (<0.1 m²)

Expand to show TLE details & history
Last TLE update: 15 hours ago

TLE from 15 hours ago
0 THORAD AGENA D DEB
1  4205U 69082BU  26093.63531957  .00000781  00000-0  32190-3 0  9999
2  4205  70.0599 290.6818 0067051 266.1776  93.1680 14.29196086 90856
Epoch: 2026-04-03T15:14Z
TLE epoch observation values (Epoch: 2026-04-03T15:14:51.610Z)
Latitude
0.00001°
Longitude
-129.99986°
Altitude
799.752 km
Speed
7.452 km/s
True Right ascension
19h 22m 43s
True Declination
0° 00' 00"
Sunlit
Object was in daylight at epoch
Visualization orbit readout
Latitude
Unknown
Longitude
Unknown
Altitude
Unknown
Speed
Unknown
Apparent Right ascension
Unknown
Apparent Declination
Unknown
Sunlit
N/A
Visualization observer readout
Local Sidereal Time
11:41:16
Azimuth
Unknown
Elevation
Unknown
Doppler factor
Unknown
Orbital elements
Apogee altitude
840.504 km
Perigee altitude
744.346 km
Semi-major axis
7,170.562 km
Eccentricity
0.00671
Inclination
70.0599°
RAAN
290.6818°
Arg. of periapsis
266.1776°
True anomaly
93.9348°
Mean anomaly
93.168°
Eccentric anomaly
93.55144°
Mean motion
3.57448 °/min
Orbital period
100.71 mins
BSTAR
0.0003219
Loading maneuver chart data...
Computing Atmospheric mass density...

Documentation

Showing up to 5 results
|